Wind_Speed
28 27 27 27 27 27 27 27 27 27 27 27 27 27 27 28 28 29 30 30 30 30 30 29 28 28 27 27 27 26 26 26 26 25 24 24 23 23 24 23 24 25 25 25 25 25 26 26 26 26 26 26 26 25 25 25 26 26 27 26 23 22 19 16 8 9 16 14 24 36 40 34 24 26 21 19 23 24 26 25 25 23 21 24 22 21 23 22
27 27 26 27 26 26 26 26 26 26 26 26 26 27 27 27 28 28 29 29 29 29 29 28 27 26 25 25 25 25 25 25 24 24 22 22 22 22 22 23 23 24 24 24 25 25 25 26 26 27 26 26 25 25 26 25 26 26 26 25 23 22 19 14 6 11 18 23 33 40 40 33 25 28 22 17 22 23 25 27 26 25 25 25 23 23 23 22
26 26 26 26 26 26 26 25 26 26 26 26 26 26 26 27 27 27 28 28 28 28 28 27 26 25 24 23 23 23 23 24 24 22 20 21 21 21 21 22 22 23 24 24 25 25 25 26 26 27 27 26 26 26 26 26 27 26 25 25 22 20 20 15 10 20 28 33 39 39 37 29 21 25 23 20 22 23 26 25 23 25 25 25 24 24 23 24
26 26 26 26 25 25 25 25 25 25 25 25 25 26 26 26 26 27 27 27 27 27 27 26 25 24 23 22 22 22 22 24 23 19 19 21 20 20 21 21 22 23 23 24 24 25 25 26 26 26 26 26 27 26 27 27 27 26 25 25 20 20 20 12 17 31 37 39 38 37 30 19 18 23 24 22 22 23 24 23 22 23 24 24 25 24 24 24
26 26 26 25 25 25 25 25 25 25 25 25 25 25 25 25 25 26 26 26 26 27 27 26 25 24 22 21 21 20 21 24 20 16 19 21 19 19 20 21 22 22 23 23 24 24 25 25 26 26 27 26 27 26 27 26 25 25 25 24 20 23 21 12 22 34 41 42 38 36 23 16 25 27 23 22 22 24 25 25 24 23 24 24 23 23 23 20
26 26 25 25 25 24 24 24 24 24 24 24 24 24 24 25 25 25 25 25 26 26 27 26 25 24 23 21 21 21 22 24 18 13 17 18 18 19 20 20 21 22 23 23 23 24 24 25 26 26 26 26 26 27 26 25 24 25 25 23 21 26 28 26 29 37 41 38 32 30 24 24 31 25 21 21 22 26 26 27 25 22 21 19 18 20 20 17
26 26 25 25 24 24 24 24 24 23 24 23 23 24 24 24 24 24 25 25 25 26 27 27 26 25 24 22 22 22 23 25 19 14 16 16 17 18 19 20 21 22 22 22 23 24 24 25 25 26 26 26 26 26 25 25 25 26 25 23 23 29 33 34 34 38 36 26 23 26 28 31 28 19 20 16 18 27 27 26 24 20 19 17 16 18 19 18
26 26 25 25 24 24 24 23 23 23 23 23 23 23 23 23 23 24 24 25 25 25 26 27 27 26 25 24 23 24 25 26 20 18 20 17 17 18 19 20 21 22 22 22 23 23 24 25 25 26 26 26 26 26 26 26 27 27 25 24 26 29 31 34 35 38 34 22 21 27 28 28 20 16 22 16 16 25 24 23 20 17 19 19 18 19 19 21
26 26 25 25 24 24 24 23 23 22 22 22 22 22 22 23 23 24 24 25 25 25 26 28 28 28 27 26 25 26 27 26 22 22 22 19 19 19 19 20 21 22 22 23 23 23 24 24 25 26 26 27 27 27 27 28 29 27 24 24 27 28 32 35 34 36 34 24 24 28 26 24 19 19 27 22 20 25 22 23 21 17 19 19 19 20 20 22
26 26 25 25 25 24 24 23 23 22 22 21 21 21 21 22 22 23 23 24 25 25 26 28 29 29 28 28 27 28 27 26 24 23 23 22 21 20 20 20 21 22 23 23 23 24 24 24 26 26 27 28 28 29 29 30 30 26 25 28 29 31 35 36 33 33 32 28 27 27 24 23 22 25 29 21 20 25 20 25 28 20 19 20 20 21 21 23
27 26 26 26 25 25 24 23 23 22 21 21 21 20 21 21 22 23 23 24 24 25 26 27 29 30 30 29 28 29 27 26 24 23 24 24 22 22 21 20 21 22 22 23 23 24 24 25 26 26 27 28 29 30 29 31 30 26 29 33 32 32 35 34 33 31 31 30 27 25 24 24 24 28 28 19 20 26 18 24 31 23 22 24 22 24 23 23
27 27 27 26 26 25 25 24 23 22 22 21 20 20 20 21 21 22 22 23 24 25 26 27 29 30 30 28 28 29 27 26 25 23 24 24 24 24 22 21 21 22 22 23 23 24 24 25 26 26 27 28 29 29 29 32 30 29 33 32 30 33 34 33 32 30 30 30 28 26 25 24 25 26 24 18 21 27 22 26 31 24 23 24 23 24 24 24
28 28 27 27 27 26 25 24 23 22 22 21 20 20 20 21 21 21 21 22 23 24 26 27 28 30 30 28 28 29 27 26 25 24 23 24 24 24 24 23 22 22 23 23 23 23 24 25 25 25 26 29 29 28 30 32 30 30 32 31 31 33 32 31 30 28 29 29 28 28 25 23 25 23 18 16 23 25 21 25 27 24 25 25 24 23 25 25
29 28 28 28 27 27 26 25 24 23 22 21 21 20 20 21 21 21 21 21 22 23 25 26 28 29 29 29 29 27 26 26 24 23 23 24 24 24 25 25 24 23 23 23 24 23 24 24 25 25 27 29 27 28 32 32 31 30 31 32 32 31 30 30 28 27 28 29 28 28 26 23 23 20 15 17 28 28 18 21 25 24 25 25 24 23 24 24
30 29 29 28 28 27 27 26 25 24 22 22 21 21 21 21 21 20 20 20 21 22 23 25 27 27 27 29 29 26 26 25 23 23 24 23 24 25 26 26 26 24 23 24 24 23 24 24 25 25 27 27 26 29 32 31 30 29 30 31 31 30 29 28 27 28 28 27 28 29 27 23 20 17 15 16 27 28 20 22 25 25 27 23 22 24 23 24
30 30 30 29 28 28 27 27 26 24 23 22 21 21 21 21 21 20 20 20 20 20 21 23 25 26 26 27 27 26 27 25 23 23 23 22 24 25 26 26 26 26 25 24 24 25 24 24 25 25 26 26 26 30 30 27 27 27 29 29 29 28 28 26 24 26 27 25 28 31 28 21 13 11 15 19 28 29 22 24 26 26 28 24 22 25 25 25
31 30 31 30 29 29 28 27 26 25 24 23 22 22 22 22 22 21 20 19 19 18 19 22 23 24 25 25 26 27 26 23 21 22 22 22 24 25 25 25 26 27 26 26 26 26 25 25 25 25 26 25 25 27 27 26 25 25 26 26 27 25 26 23 17 22 27 22 24 32 28 18 12 12 11 21 32 31 21 24 29 26 26 24 21 24 25 23
31 31 31 31 30 29 29 28 27 26 25 24 23 22 23 23 22 22 20 19 18 17 18 20 21 22 24 24 24 25 25 22 21 21 22 22 24 25 24 24 25 26 27 27 26 26 25 25 25 25 25 25 25 25 25 25 21 17 18 21 22 23 25 19 15 21 29 19 19 29 28 20 19 16 11 21 32 27 16 20 27 25 25 24 19 23 24 21
31 31 31 31 31 30 29 29 28 27 26 25 24 23 24 24 23 23 20 19 18 17 18 18 18 22 23 21 22 24 24 21 21 22 22 22 23 24 24 24 25 25 26 27 26 26 25 24 25 25 25 24 23 22 22 19 12 10 13 16 19 20 22 18 16 20 30 24 21 26 25 20 25 22 17 27 32 25 18 18 22 23 23 23 20 22 24 21
31 31 31 31 31 30 30 30 29 28 27 26 25 24 24 24 24 23 20 19 19 18 18 17 17 21 22 21 23 24 23 20 20 22 21 21 23 23 23 24 24 24 25 26 25 26 25 24 24 22 22 21 21 21 18 16 18 19 19 14 18 19 17 18 18 19 28 30 26 27 24 21 25 24 19 26 32 33 29 21 21 22 22 24 23 23 23 21
30 30 31 31 30 30 30 30 30 29 28 27 26 25 25 25 25 24 20 19 20 18 18 18 17 18 20 21 23 23 22 20 21 22 20 20 22 22 22 22 23 23 24 24 24 24 23 23 22 20 20 20 20 20 18 22 27 27 24 17 16 19 15 16 18 18 26 32 27 27 26 25 25 22 21 24 29 35 35 26 24 25 22 23 24 23 22 22
29 29 29 30 30 30 30 30 30 30 29 28 27 26 26 26 25 25 21 19 20 19 18 19 18 18 19 20 21 22 21 20 21 21 20 20 21 22 22 22 22 22 22 23 23 23 22 21 20 19 19 20 21 21 21 25 27 26 25 23 19 18 15 15 16 21 29 34 27 22 23 25 23 22 25 25 26 31 31 28 29 30 25 23 25 23 22 26
27 28 28 28 28 28 28 29 30 30 30 29 28 27 27 27 26 25 23 20 20 20 18 19 20 19 19 19 19 21 21 21 21 21 20 20 21 21 21 21 21 22 22 22 21 21 20 19 19 19 19 22 23 21 20 20 20 21 26 24 21 18 16 18 19 26 35 38 33 27 25 23 22 27 28 22 25 31 23 20 27 30 27 24 25 25 26 32
26 26 26 26 26 26 26 27 29 30 29 29 28 28 27 27 28 26 24 22 20 21 19 19 21 20 18 19 19 19 20 22 22 22 20 20 21 21 20 20 21 22 21 21 20 20 19 18 19 18 21 24 21 18 18 16 16 19 24 25 21 19 15 18 21 26 32 36 37 34 33 28 23 29 26 20 26 27 16 15 22 27 27 25 28 30 32 35
25 25 25 25 25 24 24 24 26 27 28 28 28 27 26 27 28 26 25 23 20 21 21 19 20 20 19 19 18 18 21 22 21 22 21 19 21 21 20 21 21 21 21 20 21 20 18 18 18 17 21 23 18 16 18 17 17 19 22 23 21 21 18 17 21 25 29 33 31 27 29 30 27 27 25 25 29 27 21 22 22 26 28 28 31 34 35 36
25 24 24 25 24 23 22 22 24 25 26 27 25 25 25 27 28 27 26 24 22 22 22 19 18 19 20 19 18 20 21 20 20 22 21 20 21 20 21 22 22 22 21 19 21 20 18 20 21 20 20 18 15 16 17 16 17 19 20 20 20 23 24 23 23 24 27 30 25 18 20 25 25 24 24 28 32 29 29 28 25 27 30 31 34 36 36 35
25 25 25 25 25 24 23 22 23 24 26 24 22 23 25 26 27 27 26 25 24 23 22 20 17 17 19 19 19 20 20 20 21 23 21 20 21 21 22 23 22 22 21 20 21 20 19 23 25 22 19 15 15 16 15 16 17 17 18 17 18 25 26 26 26 20 21 25 23 19 18 19 20 20 20 23 27 28 29 29 27 28 31 35 37 37 35 32
27 27 27 27 26 26 25 24 24 26 26 24 23 24 25 25 26 26 25 26 26 23 22 20 18 18 19 19 18 19 20 21 21 22 20 20 21 22 22 23 22 22 23 23 22 20 21 25 25 21 17 15 16 16 15 16 16 16 18 15 15 23 27 26 25 20 17 20 23 21 19 20 21 23 24 23 25 27 27 28 28 29 33 39 39 36 31 27
27 28 28 28 28 28 28 27 27 28 28 26 26 27 25 25 26 26 26 27 24 22 22 21 19 20 20 19 18 19 20 19 20 21 20 21 23 22 23 23 22 23 24 24 21 19 20 24 25 22 18 16 17 16 16 17 15 18 21 17 14 20 26 28 25 19 17 20 22 21 21 21 20 24 29 26 26 27 24 27 28 29 34 37 35 31 26 22
26 26 27 28 29 29 30 30 29 30 29 29 29 29 28 27 28 27 28 27 22 19 21 21 19 21 21 20 19 19 20 18 19 22 21 22 24 23 24 25 24 25 25 23 21 21 21 22 25 24 20 17 17 18 18 16 16 20 21 18 17 18 23 27 25 20 21 24 25 20 20 21 19 22 26 25 27 24 21 26 28 27 32 34 30 26 22 20
23 24 25 26 27 27 28 28 29 30 30 31 31 31 31 30 30 30 29 26 21 20 25 23 20 22 20 19 20 20 20 19 22 24 22 21 24 24 25 27 26 25 24 22 22 23 24 24 23 20 18 19 21 22 20 18 19 22 20 17 17 17 20 23 24 23 25 27 23 18 17 19 20 23 25 26 26 22 21 27 25 22 26 29 28 24 20 21
21 22 23 24 25 25 26 25 26 28 28 30 31 31 32 31 32 33 29 23 19 20 25 23 23 24 20 19 21 21 20 20 24 25 21 21 22 23 26 27 26 24 23 23 21 23 25 24 20 16 18 22 22 21 18 16 19 21 19 17 16 17 19 20 20 22 24 24 19 14 17 20 20 25 29 27 24 22 24 26 24 21 23 28 28 22 19 20
20 20 21 22 24 24 24 24 25 26 26 27 29 30 32 33 34 32 28 24 20 20 21 21 22 23 22 20 21 22 21 22 25 25 22 22 23 24 25 25 26 25 23 22 22 23 25 24 21 17 18 21 20 19 16 14 18 20 18 18 18 19 20 18 18 18 18 18 17 15 19 22 21 25 30 26 23 25 26 25 23 22 23 27 26 21 19 20
19 20 20 21 22 23 23 23 24 25 26 27 28 29 32 34 33 30 28 24 22 23 22 20 21 21 20 20 20 22 22 22 26 26 22 24 25 26 27 26 28 27 24 24 25 24 24 24 23 20 19 21 18 18 17 13 15 18 17 18 19 19 20 19 17 17 16 16 16 19 22 23 23 26 30 28 26 28 28 26 23 22 24 25 22 20 21 20
19 19 20 21 22 23 23 23 24 24 26 26 28 30 32 32 29 27 26 22 21 24 22 19 22 21 19 20 19 21 21 20 25 27 24 25 26 26 27 26 28 28 26 27 27 25 24 23 22 21 20 21 19 19 20 17 15 17 19 20 21 20 21 21 18 18 19 18 18 20 23 24 26 28 27 26 27 28 29 29 27 25 26 25 22 21 22 20
18 19 19 20 21 22 23 23 24 25 26 27 29 31 31 29 27 25 24 21 20 22 20 18 21 22 21 21 20 21 21 20 23 25 24 25 26 26 26 26 28 29 28 28 28 27 25 20 18 20 22 22 21 20 22 21 18 19 20 19 19 19 18 18 19 20 21 20 19 21 22 22 26 30 28 26 27 29 30 31 30 29 28 26 24 22 22 24
17 18 19 20 21 22 22 23 24 25 26 28 30 30 29 27 26 24 23 22 18 15 17 19 20 21 21 22 23 22 20 20 24 26 26 26 26 26 26 25 26 28 28 28 27 27 26 23 20 20 19 21 23 22 23 23 21 20 21 19 19 21 19 19 21 21 21 21 21 22 22 20 21 26 28 28 28 28 28 30 30 31 31 29 26 23 23 25
18 19 20 21 21 22 23 23 23 25 26 28 29 29 28 27 26 23 21 24 21 13 18 26 24 17 18 20 23 24 23 23 26 27 28 28 27 27 26 26 27 27 27 29 28 29 29 27 26 23 18 18 24 25 24 25 23 20 21 23 24 24 22 21 22 22 20 19 21 23 21 18 21 24 25 26 27 26 27 28 28 29 29 27 26 25 25 24
19 19 20 21 22 22 23 23 23 25 26 27 28 27 27 27 26 23 22 26 25 17 21 30 26 17 16 18 18 21 25 27 28 29 29 29 30 29 28 28 28 26 25 27 29 33 33 28 26 24 21 19 23 26 26 26 25 23 23 25 27 25 24 23 22 22 19 16 17 19 18 18 23 26 24 25 26 24 24 24 25 26 26 26 28 27 27 25
19 20 20 20 21 21 22 22 23 24 25 26 26 26 27 27 26 25 26 28 28 24 26 31 27 18 16 16 15 18 24 28 30 30 30 33 34 31 30 32 32 28 26 26 26 30 35 33 28 25 23 23 23 23 25 25 24 24 25 26 27 26 26 26 24 22 22 20 17 17 19 23 27 27 26 27 27 24 24 24 24 25 25 26 28 28 28 27
19 19 19 19 19 20 21 23 23 24 25 25 25 26 26 27 27 26 25 27 32 33 31 31 31 24 19 16 15 18 24 27 31 31 29 32 34 31 30 32 32 30 28 27 25 25 32 34 32 30 28 28 24 19 19 22 21 20 21 24 25 23 22 25 26 25 24 24 23 21 22 26 27 26 27 28 27 26 26 26 26 26 26 26 27 27 28 27
18 17 17 18 19 20 21 22 21 22 23 23 24 24 25 26 27 27 26 28 35 37 33 31 33 32 29 23 19 22 23 22 27 32 32 31 31 31 33 33 31 29 26 25 26 28 31 32 32 33 33 31 27 24 22 23 21 19 21 24 25 24 23 23 25 26 23 23 26 26 26 28 28 27 28 28 28 30 30 29 28 27 27 27 26 25 26 26
17 17 18 19 19 19 20 19 19 19 20 21 21 22 23 22 25 29 32 32 34 35 35 34 33 32 33 32 29 29 26 20 21 27 30 29 27 28 32 33 32 33 30 26 28 31 33 31 30 32 33 33 32 31 30 28 27 27 28 27 23 23 26 28 27 27 24 23 25 25 26 29 29 29 29 29 31 32 32 30 28 27 26 25 24 23 23 24
17 18 18 19 20 20 20 19 18 18 19 21 23 24 25 24 24 29 32 32 32 32 34 33 30 28 30 36 37 31 27 24 22 22 25 26 27 27 29 30 32 36 35 30 28 30 32 32 32 31 31 32 33 33 34 32 31 32 33 31 26 22 23 26 30 31 29 26 24 24 25 27 30 30 29 28 30 31 31 29 28 27 27 25 25 25 24 24
18 19 19 20 21 20 20 20 19 19 20 22 24 26 27 25 24 26 29 32 33 33 32 31 28 26 28 36 40 33 27 26 23 21 23 24 23 24 27 29 31 35 37 34 32 29 29 31 32 32 33 32 31 32 33 34 33 32 32 34 33 28 22 23 28 33 33 30 27 26 25 24 26 30 31 30 30 30 28 26 24 25 25 26 27 27 25 25
20 21 23 23 22 20 20 21 21 22 23 24 24 24 26 26 24 25 29 31 32 34 34 33 32 31 31 36 42 40 36 31 23 20 24 24 21 21 25 29 30 31 34 36 36 30 28 32 32 30 31 30 30 30 30 31 32 30 30 33 34 33 29 27 29 30 32 32 31 30 31 30 29 29 30 31 31 29 27 25 24 24 25 26 28 28 26 25
22 24 25 24 21 17 17 18 20 22 25 26 25 24 25 27 26 25 26 29 32 34 34 33 33 32 30 32 38 42 42 38 31 24 23 24 22 20 22 26 28 26 25 27 30 29 28 32 32 29 28 29 32 32 28 28 31 31 30 31 32 33 34 34 34 32 31 31 31 31 32 33 33 32 30 30 30 30 27 25 26 27 26 25 25 25 23 21
25 27 25 20 15 12 10 10 12 16 21 24 25 23 23 25 27 26 25 26 30 33 34 33 33 32 30 29 33 38 41 41 38 31 25 27 29 26 23 26 27 27 25 23 24 26 26 27 29 30 29 30 33 34 31 29 31 33 31 31 32 33 36 37 37 35 34 34 33 31 30 31 32 32 31 29 31 32 29 26 26 27 25 22 21 20 20 21
26 27 22 15 9 7 8 8 8 10 14 20 23 22 20 21 25 28 27 26 26 29 32 33 32 32 31 30 30 33 37 40 40 38 37 36 37 35 32 29 26 25 26 25 25 26 25 26 27 28 29 30 32 33 33 32 32 34 33 33 34 35 36 35 34 34 35 38 38 35 33 33 33 32 32 30 30 32 32 30 27 26 24 22 20 20 20 21
26 26 20 13 9 7 8 8 7 8 7 10 16 19 19 19 22 25 27 27 26 26 28 31 32 31 31 32 33 32 34 37 38 41 43 41 39 38 35 31 28 23 21 24 26 26 25 26 28 28 28 29 30 30 31 31 31 33 33 33 35 36 35 34 34 34 34 35 37 37 36 36 35 35 35 34 32 32 32 31 30 28 26 25 24 24 23 21
25 24 18 13 11 9 9 11 10 8 4 3 10 15 17 17 18 21 24 27 27 25 27 29 30 30 31 31 31 30 30 33 36 38 41 41 40 39 36 33 34 31 25 23 26 27 27 28 29 29 28 27 27 28 30 29 28 29 31 32 34 36 36 36 37 38 36 34 35 36 37 37 37 37 36 35 34 32 31 30 31 32 31 28 26 26 25 23
22 22 17 12 11 9 10 13 14 10 5 1 7 11 13 14 16 17 20 24 26 25 26 27 27 29 30 27 26 28 29 30 33 35 36 36 37 38 38 35 34 34 31 26 22 23 27 28 27 28 28 25 26 28 28 27 27 27 28 30 31 34 36 37 38 39 41 40 38 38 37 36 36 37 36 34 33 33 33 31 30 30 32 31 30 30 29 27
Wind_Direction
269 271 273 276 278 280 280 281 282 283 284 285 286 286 286 286 286 285 284 281 279 276 274 273 272 272 271 271 271 272 272 272 272 272 270 268 266 262 259 256 252 249 246 244 242 239 237 236 235 235 235 236 236 236 236 234 234 235 235 235 233 228 217 202 183 252 238 226 249 249 249 247 248 260 252 239 237 235 244 243 243 244 236 234 232 234 237 238
269 271 274 276 278 279 280 282 283 284 285 285 286 287 287 287 287 286 284 282 278 275 273 271 270 269 269 269 269 269 270 270 269 268 268 266 263 259 256 253 249 246 243 240 237 235 234 232 231 232 232 232 231 231 232 231 232 233 235 233 228 224 203 178 181 243 231 220 232 243 251 250 244 255 255 239 239 238 242 243 242 241 236 234 230 232 235 236
270 271 273 275 277 279 280 282 283 284 285 285 286 287 287 287 287 286 284 281 277 274 271 268 267 266 265 266 266 267 268 267 265 265 266 264 261 257 254 250 246 242 240 236 234 233 230 229 229 229 229 229 228 229 229 228 230 230 232 231 225 218 193 172 214 228 220 220 229 241 251 256 251 251 250 240 238 238 242 245 243 239 235 232 233 235 235 238
269 271 272 274 276 278 279 280 282 283 284 285 286 287 287 287 287 287 285 281 277 272 268 265 264 263 262 263 263 265 265 264 266 265 262 261 259 255 252 248 244 239 237 234 231 229 227 227 226 227 227 228 228 227 228 229 229 230 230 231 221 204 186 183 232 228 222 223 229 239 249 260 251 239 239 238 238 241 244 247 245 240 235 232 233 232 232 237
268 269 271 272 274 276 278 280 281 283 284 285 286 287 287 287 287 286 285 282 276 270 265 262 260 259 258 258 259 260 261 263 266 261 256 258 255 252 249 245 242 237 234 231 228 227 225 225 224 225 225 225 227 226 227 230 229 229 230 229 216 194 184 204 242 235 228 229 233 241 249 256 244 236 236 237 237 240 241 243 244 239 235 235 233 230 233 238
267 268 269 271 273 274 276 278 280 282 283 285 285 286 286 287 286 286 285 282 276 269 263 259 256 254 254 253 252 255 258 261 261 257 257 258 252 248 246 242 239 235 232 229 226 226 225 224 224 223 225 224 226 227 226 229 228 226 226 223 213 202 199 205 226 236 235 235 240 244 245 245 244 242 238 235 235 237 237 241 244 240 235 237 239 236 236 239
265 267 268 269 271 272 274 276 278 280 282 283 284 285 285 286 285 285 284 281 276 268 261 256 252 250 250 249 248 250 253 256 256 254 255 256 252 248 245 241 237 234 231 229 225 225 225 224 224 223 224 224 226 228 227 229 227 225 224 218 210 212 217 214 219 238 245 243 244 241 237 238 241 245 243 232 231 233 233 240 242 237 237 241 243 238 237 245
264 265 266 267 268 269 271 273 276 278 280 282 283 284 284 284 284 283 282 280 275 268 260 254 250 248 247 246 247 249 250 253 254 252 251 251 253 250 245 241 237 234 231 229 227 225 225 224 225 224 224 225 226 229 229 230 229 226 222 219 215 214 225 230 230 242 250 245 236 234 232 236 235 236 237 214 213 228 227 235 236 229 235 241 240 236 240 249
262 263 264 265 266 267 268 270 273 276 278 280 281 283 283 283 283 282 281 279 274 268 260 253 249 247 246 245 245 248 250 252 251 252 252 247 248 249 246 243 238 236 232 231 229 227 227 226 227 227 226 227 227 229 230 231 231 228 224 223 224 218 223 233 235 241 248 243 234 233 231 234 228 227 233 219 218 231 227 232 232 231 235 235 239 239 246 250
261 261 262 262 263 264 265 268 270 273 275 277 279 281 282 282 282 281 280 277 274 268 261 253 249 247 246 245 245 248 252 255 251 250 254 248 244 247 247 245 240 237 234 232 232 230 229 229 229 229 228 228 228 228 229 231 231 229 229 226 225 225 227 234 238 240 246 245 238 236 230 229 226 227 234 227 231 233 227 234 231 230 235 231 240 244 250 254
259 259 259 260 261 262 263 265 267 269 272 274 276 278 280 281 281 280 280 278 274 268 261 254 248 246 247 246 246 250 253 258 256 251 253 250 246 245 245 245 242 238 235 233 233 232 232 232 231 231 231 232 232 233 232 234 233 229 231 228 224 228 231 235 239 238 243 245 242 239 233 229 226 230 234 225 237 238 223 235 232 223 234 238 242 246 247 253
258 258 258 258 259 260 261 262 264 266 269 271 273 275 277 279 280 280 280 279 276 269 262 255 249 246 246 247 247 250 252 256 258 255 252 251 247 245 243 243 243 239 236 234 233 232 233 234 233 234 236 235 235 237 237 237 234 231 235 234 229 231 234 236 239 239 242 245 246 243 235 231 230 233 236 219 231 243 226 230 235 224 230 240 240 242 246 251
257 256 256 257 257 258 259 260 261 263 266 268 270 272 274 277 279 280 281 281 277 271 263 255 250 248 246 246 247 250 253 253 255 256 253 251 248 245 242 240 241 241 237 236 235 234 234 235 235 236 239 237 237 239 239 238 236 235 238 239 235 234 237 239 241 241 243 245 247 247 239 234 236 234 234 219 219 233 229 226 235 233 231 238 238 238 246 252
256 256 255 255 256 256 256 257 258 260 262 265 267 269 271 273 277 279 281 282 279 274 265 256 251 249 247 245 245 247 251 252 252 254 253 250 247 245 243 240 239 240 238 237 237 236 236 237 236 237 239 238 240 241 239 239 237 237 239 240 238 237 237 239 241 241 242 246 246 248 246 237 239 236 225 228 233 235 240 237 235 236 236 237 242 244 249 255
257 256 255 254 254 254 254 255 255 256 258 260 263 265 267 270 273 277 280 281 281 276 268 259 253 250 248 246 245 246 248 250 249 250 251 250 248 246 244 242 239 238 238 238 237 237 238 238 237 238 239 239 241 240 240 240 239 239 239 239 239 238 236 237 241 240 239 245 248 247 246 238 240 241 221 232 253 249 241 246 240 235 237 231 236 245 249 254
258 257 256 254 253 253 253 253 253 253 255 256 259 261 263 266 269 272 276 280 281 278 270 261 254 251 249 247 245 245 246 247 246 248 250 250 249 247 245 243 240 238 238 238 238 239 239 239 238 238 239 239 238 239 240 241 240 239 238 239 239 237 235 234 238 247 245 241 246 247 241 237 235 225 225 242 262 258 239 243 243 235 239 234 233 244 248 252
258 257 256 255 254 253 252 252 251 251 252 253 255 258 260 263 265 268 271 276 280 280 273 263 255 251 250 248 244 242 244 247 248 249 251 250 249 247 245 244 242 239 238 239 240 241 240 240 238 238 239 238 239 240 240 239 237 238 238 238 238 237 238 229 219 247 250 233 241 250 240 225 202 185 219 245 254 259 244 239 239 233 238 239 241 249 250 252
258 257 256 255 254 253 252 251 251 250 251 252 252 254 257 260 262 264 266 270 275 278 274 265 257 251 249 249 245 244 244 244 247 248 248 249 248 247 245 244 242 240 238 240 241 242 241 240 239 238 237 236 237 237 238 238 235 239 245 245 239 233 234 219 191 236 249 238 243 253 242 212 192 187 189 214 234 250 238 232 241 234 237 244 249 256 255 255
260 258 257 255 254 253 252 251 251 250 249 250 251 251 254 258 259 262 264 267 269 271 272 269 260 252 250 249 245 243 241 241 245 247 246 247 247 246 244 243 242 240 239 240 241 242 240 239 238 238 237 237 238 237 238 233 216 222 240 252 253 238 228 209 184 228 251 257 257 250 238 209 198 200 196 207 223 242 240 236 245 241 239 245 248 253 255 255
261 260 258 256 255 254 253 252 251 250 249 249 250 250 252 255 258 260 263 264 264 264 268 270 261 254 252 248 245 241 239 242 246 247 246 247 247 245 243 242 241 240 240 241 241 241 239 239 238 238 239 238 236 235 231 207 188 202 210 224 256 245 221 209 195 219 250 256 256 251 234 207 207 211 209 222 227 234 242 245 248 248 245 246 248 250 252 254
263 262 260 258 256 254 253 253 252 250 249 249 249 249 251 253 256 259 258 258 261 261 262 265 261 257 253 248 247 243 238 241 246 247 248 247 246 245 243 241 241 240 240 240 240 239 238 239 239 239 238 236 235 230 221 210 202 203 198 186 228 238 215 213 204 210 246 250 246 253 240 214 217 220 215 234 238 232 235 239 249 256 251 249 254 253 253 256
266 264 262 260 257 255 254 253 252 251 249 249 248 248 250 251 254 257 256 254 259 259 257 260 259 256 254 250 249 246 241 241 245 247 248 246 245 243 241 239 239 238 237 237 237 237 239 240 240 239 237 235 235 226 218 225 221 210 201 183 191 216 210 213 209 207 235 244 234 240 243 221 217 227 219 225 246 249 240 234 242 252 252 250 253 253 252 253
268 266 264 262 260 257 255 254 253 252 250 249 249 248 249 251 252 255 257 253 254 256 255 258 259 255 253 253 249 246 244 243 244 245 244 244 243 241 239 237 237 235 234 235 236 237 237 237 238 235 236 235 234 233 227 234 236 219 215 208 192 192 201 211 216 217 230 242 238 232 243 236 219 229 227 213 236 254 249 230 234 245 249 247 249 249 245 245
269 268 266 264 261 259 257 255 253 253 251 249 249 248 248 251 252 254 256 254 252 255 253 252 257 257 253 251 247 245 245 244 244 244 242 242 242 240 238 235 233 233 232 234 236 237 235 234 237 234 235 238 234 237 236 230 230 220 220 227 207 177 187 216 222 225 230 239 243 240 245 245 228 229 227 208 224 240 244 235 237 246 249 244 244 245 241 242
269 268 267 265 262 260 257 255 254 253 252 250 248 249 249 251 253 253 255 255 252 254 253 249 254 259 254 249 246 243 243 242 243 245 242 240 241 239 235 232 229 229 231 233 234 234 232 230 234 233 234 239 233 228 231 224 220 216 216 223 210 182 179 209 231 239 237 237 245 251 246 237 233 235 227 219 232 242 251 251 245 247 248 244 245 245 245 247
268 267 267 265 263 260 257 255 254 253 251 250 249 250 250 251 254 254 255 255 253 253 256 253 252 256 254 248 244 243 244 243 243 246 242 238 240 236 231 229 227 228 228 230 235 232 227 228 230 233 236 237 230 226 227 223 219 216 213 214 212 203 190 192 218 242 247 242 245 254 242 229 236 243 230 230 244 248 250 251 246 246 248 249 248 246 247 249
267 266 265 264 263 261 258 256 255 254 251 250 251 251 249 251 254 255 255 255 254 253 255 253 251 253 254 249 243 244 246 243 240 243 242 239 239 234 229 227 225 228 228 226 232 229 224 232 236 237 243 236 226 229 225 219 220 215 209 208 213 218 211 197 201 225 246 242 239 242 239 228 230 236 230 235 248 248 246 247 245 245 247 247 246 246 249 247
267 266 265 263 263 261 260 257 255 255 253 252 254 251 249 251 253 253 254 254 253 252 253 255 253 251 254 252 246 246 246 243 242 243 241 238 237 232 228 228 224 224 228 228 232 232 227 235 242 240 242 236 226 228 224 217 216 209 204 207 216 221 222 213 206 219 242 240 236 237 239 232 222 229 239 243 247 248 248 246 242 241 244 245 245 246 247 245
268 267 266 264 263 262 260 258 256 256 255 254 254 252 251 252 252 252 251 250 251 252 254 256 254 251 253 252 245 244 245 245 246 244 237 233 233 230 225 226 225 223 228 231 230 231 230 234 240 239 235 233 228 225 222 217 211 212 213 214 219 218 217 219 218 225 244 243 235 229 231 232 224 233 244 246 247 249 250 248 241 238 243 246 248 249 249 250
270 268 267 265 263 262 260 259 257 256 255 254 253 252 251 250 250 250 249 248 248 248 248 246 247 248 250 251 245 243 244 242 244 242 235 231 231 227 224 223 224 225 229 231 226 226 231 233 234 234 231 229 227 221 218 213 207 215 221 218 219 217 214 221 224 228 240 243 237 231 232 230 221 232 243 245 249 251 250 249 242 237 243 248 250 253 254 254
271 270 268 266 264 262 261 260 259 256 254 253 252 251 249 248 248 248 247 247 244 243 246 245 248 250 248 248 246 242 242 238 241 243 238 235 233 227 225 224 224 226 229 230 226 227 234 238 237 234 230 225 224 221 218 214 210 215 219 212 211 215 215 220 227 229 233 239 240 234 234 234 220 224 237 240 244 246 243 247 246 240 246 251 252 254 253 249
271 270 269 267 266 263 261 261 259 257 255 253 252 251 250 248 246 246 246 244 242 246 250 250 252 253 249 247 245 241 240 238 240 244 240 237 236 231 229 229 227 228 232 234 231 233 239 244 244 236 228 227 227 227 224 217 214 216 217 209 203 211 218 219 224 231 234 239 241 226 228 239 229 224 233 234 234 241 244 248 246 239 247 255 253 252 250 247
273 271 269 268 267 265 263 261 259 258 256 253 251 250 249 247 245 245 244 240 235 237 243 244 246 250 246 241 242 240 237 236 241 243 240 238 235 232 231 231 230 227 229 234 234 235 242 245 244 236 229 232 230 228 226 219 219 218 213 209 205 211 221 221 221 229 234 238 239 228 226 233 230 229 235 234 230 240 249 251 243 232 238 249 251 249 241 236
276 273 272 270 269 267 265 263 260 259 257 254 252 250 248 247 246 245 244 239 232 234 239 242 244 249 246 238 237 241 234 229 238 240 237 237 235 232 230 228 230 228 225 231 232 232 237 241 240 234 231 234 230 224 222 216 222 222 212 210 212 215 222 224 223 224 229 235 235 232 230 227 227 232 237 240 238 242 249 253 251 242 234 236 239 238 234 232
280 278 275 273 271 269 267 264 262 260 257 255 253 250 249 248 248 247 245 240 233 235 239 245 246 243 244 238 230 237 236 228 236 241 236 235 236 236 234 230 231 230 226 230 234 233 235 239 242 238 233 233 226 221 221 214 216 222 215 212 216 220 221 224 226 221 222 228 225 227 231 227 229 235 238 239 239 239 243 248 252 251 244 239 235 232 235 238
286 283 281 277 274 271 269 266 264 260 258 256 253 252 251 251 250 245 241 235 230 232 235 244 250 241 238 240 232 231 234 227 231 240 238 236 236 237 237 235 234 233 229 230 234 236 233 234 241 239 234 229 220 217 222 219 216 220 220 218 222 226 226 229 231 225 223 227 225 227 232 230 233 239 240 239 237 237 242 246 247 248 250 250 246 242 239 238
289 287 285 281 277 274 271 268 265 261 259 256 254 253 252 251 248 242 236 226 222 237 240 232 240 245 241 242 238 233 233 230 230 235 237 237 236 235 237 237 236 234 230 229 232 235 232 225 223 226 231 234 224 215 221 223 218 219 220 217 220 225 226 232 235 230 227 228 228 233 239 240 244 246 244 243 239 237 242 248 251 252 252 251 253 254 249 246
292 290 286 283 280 277 274 270 266 263 260 257 256 255 253 252 247 241 234 220 215 237 240 219 216 234 239 237 237 233 229 229 231 233 232 232 232 230 230 232 234 235 232 229 228 231 231 225 219 214 217 234 231 218 217 222 218 219 221 215 216 219 220 226 232 233 234 231 229 236 243 250 256 255 252 248 244 242 244 248 252 253 250 247 251 255 254 257
296 293 289 286 284 280 277 273 268 265 261 259 258 256 253 251 245 238 226 216 215 232 237 217 208 219 228 226 233 235 232 229 229 231 230 230 232 227 221 222 224 226 229 229 229 230 229 225 221 212 200 214 229 221 218 220 215 218 223 218 216 219 221 223 227 229 233 234 231 233 235 241 248 251 253 254 252 253 256 256 252 249 247 247 250 251 250 252
300 297 294 291 288 284 280 276 271 267 263 260 257 254 250 246 243 236 226 218 217 226 232 218 211 222 228 226 234 234 233 231 229 230 231 231 233 229 222 220 219 219 221 222 226 232 232 227 223 220 210 208 220 224 223 223 218 220 228 225 221 222 226 230 230 229 229 230 230 231 230 234 241 248 256 260 260 262 265 267 263 259 257 254 251 249 250 251
306 302 299 296 291 287 284 279 274 269 265 261 257 253 249 243 239 233 228 227 222 225 230 221 216 220 215 219 236 227 225 232 231 231 232 232 234 231 226 221 217 219 219 210 211 225 232 228 222 224 226 219 214 218 226 226 221 223 232 233 229 227 230 233 234 235 234 232 229 230 232 234 238 246 254 260 264 265 264 265 266 267 267 266 262 259 258 258
311 306 301 299 295 291 287 282 277 271 266 261 256 251 247 243 238 229 223 228 228 227 231 228 224 223 214 213 225 215 215 233 235 234 237 237 235 230 226 225 222 222 216 198 197 213 225 226 221 221 227 225 212 207 215 217 212 216 229 233 233 233 235 237 240 240 236 233 233 233 237 241 242 245 248 251 257 262 262 262 264 267 269 271 269 264 260 259
317 312 307 304 301 297 292 284 276 270 262 256 252 248 244 239 236 231 227 229 230 230 232 230 229 229 221 221 223 213 208 219 228 234 236 234 235 228 221 226 228 226 218 201 198 211 220 225 223 221 225 226 219 216 219 214 202 205 216 221 224 231 235 235 239 239 232 229 236 237 238 242 244 244 246 249 252 257 261 263 265 268 269 267 265 263 259 258
324 319 315 310 307 303 294 282 271 264 257 251 247 243 240 237 234 232 231 231 230 231 233 231 231 233 228 226 227 218 211 214 220 234 234 230 238 237 226 227 227 224 220 214 211 215 220 226 227 224 226 228 225 224 227 222 215 213 213 212 213 222 233 236 236 238 236 233 235 236 237 239 240 240 242 246 249 251 256 262 264 265 266 264 261 260 256 252
332 327 323 316 311 304 292 280 268 258 254 250 245 240 238 239 237 231 228 228 227 228 230 227 226 230 227 225 226 223 218 216 218 230 234 231 236 238 232 230 228 226 224 222 223 222 221 227 229 227 229 230 227 227 225 224 225 223 217 213 212 213 226 240 239 237 238 236 233 233 236 239 239 239 240 242 247 250 254 258 256 255 256 254 252 250 246 245
339 335 330 322 312 301 288 281 271 259 253 249 245 240 237 236 236 231 226 226 224 224 227 227 225 227 225 223 225 226 224 221 219 226 230 231 234 236 233 232 232 235 233 228 228 227 224 226 227 226 228 229 230 232 227 222 226 227 222 220 217 213 218 230 237 238 238 236 233 232 234 237 239 243 244 246 251 254 253 250 251 252 250 246 245 244 240 239
345 341 334 325 318 309 295 286 275 261 253 247 242 238 235 232 233 233 228 224 222 222 225 227 227 232 231 226 227 229 229 228 228 231 232 232 234 234 233 231 231 234 234 229 227 225 224 227 227 227 230 231 233 236 232 227 229 231 228 225 222 220 221 224 228 233 236 235 233 232 234 237 240 244 246 248 252 257 256 253 254 258 256 250 247 245 239 236
350 347 339 331 330 329 319 310 294 270 254 245 238 234 234 233 232 233 229 223 222 222 225 226 226 231 235 232 231 232 232 231 232 233 234 235 233 233 236 239 239 240 242 240 237 233 231 232 232 232 235 236 239 241 240 238 237 237 234 229 226 227 229 229 228 230 234 236 236 235 237 240 243 245 248 250 253 258 261 260 258 257 255 251 248 248 247 244
354 352 348 345 350 352 348 352 340 304 267 242 231 227 228 229 229 229 227 224 221 221 225 227 225 228 232 232 231 231 230 231 231 230 231 234 235 235 239 244 247 249 247 245 244 241 239 239 239 239 240 242 243 246 246 245 244 243 242 238 236 235 235 237 238 237 238 240 240 241 242 244 246 248 249 248 250 254 257 258 257 254 248 245 247 250 249 243
358 359 2 5 9 8 9 15 2 335 298 235 218 216 220 226 230 229 226 223 221 219 220 222 223 226 228 228 228 228 227 227 228 229 230 234 237 238 239 240 242 246 245 242 242 241 240 242 242 241 243 245 247 248 250 249 248 246 246 244 240 236 236 241 245 245 245 244 244 244 244 245 247 248 249 246 245 249 252 253 253 251 249 249 249 250 249 243
3 6 14 19 21 24 26 23 7 345 329 217 201 205 214 223 230 232 228 224 224 221 217 218 220 222 224 227 228 227 227 226 226 229 230 232 236 239 240 239 241 244 245 244 244 244 243 242 241 241 243 246 249 250 250 252 251 248 247 246 242 238 240 244 247 248 250 252 250 246 244 244 246 248 250 249 247 249 252 252 253 251 251 252 252 252 252 246
6 11 16 19 24 29 25 19 11 4 5 228 202 201 210 219 222 227 228 225 226 226 221 220 223 224 223 227 229 227 227 226 226 229 231 231 233 236 238 238 240 242 243 243 245 246 243 241 241 242 243 246 250 250 249 251 253 252 250 249 247 245 246 250 251 251 251 252 252 251 247 246 247 249 250 250 249 250 253 254 255 253 251 252 254 255 254 250
Height
5754 5754 5754 5754 5753 5753 5753 5753 5752 5752 5751 5751 5751 5750 5750 5749 5749 5749 5748 5748 5748 5747 5747 5747 5747 5747 5747 5747 5747 5747 5747 5748 5748 5749 5750 5750 5752 5752 5753 5755 5756 5758 5760 5761 5763 5764 5766 5767 5768 5769 5771 5772 5774 5775 5777 5778 5779 5780 5781 5783 5786 5788 5791 5794 5800 5803 5803 5804 5798 5792 5790 5794 5799 5796 5798 5801 5800 5801 5799 5799 5800 5802 5804 5803 5804 5805 5805 5807
5750 5750 5750 5750 5750 5750 5750 5749 5749 5749 5748 5748 5747 5747 5747 5746 5746 5745 5745 5745 5744 5744 5744 5744 5744 5744 5744 5744 5745 5745 5745 5745 5746 5747 5747 5748 5749 5750 5751 5752 5754 5755 5757 5758 5760 5761 5763 5764 5765 5766 5768 5769 5771 5772 5774 5775 5776 5777 5779 5781 5784 5786 5790 5793 5799 5801 5799 5797 5792 5787 5786 5792 5797 5795 5796 5799 5798 5799 5797 5797 5798 5799 5801 5802 5802 5802 5804 5806
5747 5747 5747 5747 5747 5747 5747 5746 5746 5746 5745 5745 5744 5744 5743 5743 5742 5742 5742 5741 5741 5741 5741 5742 5742 5742 5742 5742 5742 5742 5743 5743 5743 5745 5746 5746 5747 5748 5749 5750 5752 5753 5754 5756 5757 5759 5760 5761 5762 5764 5765 5767 5768 5770 5771 5772 5773 5775 5777 5779 5782 5785 5787 5790 5796 5795 5791 5789 5787 5786 5787 5791 5796 5794 5795 5796 5796 5796 5794 5795 5797 5797 5798 5800 5801 5801 5803 5804
5744 5744 5744 5744 5744 5744 5744 5743 5743 5742 5742 5742 5741 5741 5740 5740 5739 5739 5739 5738 5738 5738 5738 5739 5739 5739 5740 5740 5740 5740 5740 5740 5742 5744 5744 5744 5745 5746 5747 5748 5749 5751 5752 5753 5755 5756 5757 5759 5760 5761 5763 5764 5766 5767 5768 5769 5771 5773 5775 5777 5780 5783 5785 5789 5789 5786 5784 5785 5785 5785 5787 5791 5792 5791 5792 5793 5794 5794 5793 5794 5795 5795 5796 5798 5799 5800 5802 5803
5741 5741 5741 5741 5741 5741 5740 5740 5740 5740 5739 5739 5738 5738 5737 5737 5736 5736 5736 5736 5735 5735 5735 5736 5736 5737 5737 5738 5738 5738 5738 5738 5740 5742 5741 5742 5743 5744 5745 5746 5747 5748 5750 5751 5752 5754 5755 5756 5758 5759 5760 5762 5763 5765 5766 5768 5770 5771 5773 5775 5779 5780 5782 5786 5784 5780 5781 5781 5782 5784 5788 5790 5787 5788 5790 5791 5792 5791 5791 5791 5791 5792 5794 5795 5797 5799 5800 5802
5738 5738 5738 5738 5738 5738 5738 5737 5737 5737 5736 5736 5735 5735 5734 5734 5733 5733 5733 5733 5732 5732 5733 5733 5734 5734 5735 5736 5736 5736 5736 5736 5739 5740 5739 5740 5741 5742 5743 5744 5745 5746 5748 5749 5750 5751 5753 5754 5755 5757 5758 5760 5761 5762 5764 5766 5768 5769 5771 5773 5777 5777 5776 5779 5778 5775 5775 5778 5781 5784 5788 5786 5783 5787 5789 5789 5789 5789 5789 5788 5789 5790 5791 5793 5795 5797 5799 5800
5735 5735 5735 5735 5735 5735 5735 5735 5734 5734 5733 5733 5732 5732 5731 5731 5731 5730 5730 5730 5729 5729 5730 5730 5731 5732 5733 5733 5734 5734 5734 5734 5737 5738 5738 5739 5739 5740 5741 5742 5743 5744 5746 5747 5748 5749 5751 5752 5753 5755 5756 5758 5759 5761 5763 5764 5765 5766 5769 5771 5773 5774 5772 5773 5774 5771 5772 5777 5781 5783 5784 5782 5783 5787 5788 5788 5787 5784 5786 5787 5788 5789 5790 5791 5793 5795 5797 5798
5732 5732 5732 5732 5732 5732 5732 5732 5731 5731 5730 5730 5729 5729 5728 5728 5728 5727 5727 5727 5727 5727 5727 5727 5728 5729 5730 5731 5731 5732 5731 5732 5735 5736 5736 5738 5738 5739 5739 5740 5741 5742 5744 5745 5746 5747 5748 5750 5751 5752 5754 5755 5757 5759 5760 5761 5763 5764 5767 5769 5770 5771 5772 5772 5772 5770 5771 5777 5779 5779 5780 5780 5784 5786 5784 5786 5785 5781 5784 5786 5787 5788 5788 5789 5791 5793 5794 5795
5728 5728 5729 5729 5729 5729 5729 5729 5728 5728 5727 5727 5726 5726 5726 5725 5725 5725 5724 5724 5724 5724 5724 5724 5725 5726 5727 5728 5729 5729 5729 5731 5734 5734 5734 5736 5736 5737 5737 5738 5739 5740 5742 5743 5744 5745 5746 5748 5749 5750 5752 5753 5754 5756 5757 5758 5760 5762 5765 5767 5767 5769 5768 5768 5769 5769 5770 5774 5776 5776 5779 5779 5783 5783 5780 5783 5783 5781 5782 5783 5784 5785 5786 5788 5788 5790 5791 5792
5725 5725 5725 5726 5726 5726 5726 5726 5725 5725 5725 5724 5724 5723 5723 5723 5722 5722 5722 5721 5721 5721 5721 5722 5722 5723 5724 5725 5726 5726 5727 5729 5731 5732 5732 5734 5735 5735 5736 5736 5737 5738 5740 5741 5742 5743 5745 5746 5747 5748 5749 5750 5751 5752 5754 5755 5757 5760 5763 5763 5764 5765 5765 5765 5766 5767 5768 5771 5773 5774 5777 5778 5780 5780 5778 5782 5782 5780 5781 5781 5781 5783 5784 5786 5787 5788 5789 5790
5722 5722 5722 5722 5723 5723 5723 5722 5722 5722 5722 5721 5721 5721 5720 5720 5719 5719 5719 5718 5718 5718 5718 5719 5719 5721 5722 5723 5724 5724 5726 5727 5728 5730 5730 5731 5733 5733 5734 5735 5735 5736 5737 5739 5740 5741 5742 5743 5744 5746 5747 5748 5749 5750 5752 5753 5755 5758 5758 5758 5760 5761 5762 5763 5764 5765 5767 5768 5770 5772 5774 5775 5776 5776 5777 5782 5780 5778 5781 5779 5778 5782 5783 5784 5785 5786 5787 5788
5718 5719 5719 5719 5719 5719 5719 5719 5719 5719 5719 5719 5718 5718 5718 5717 5717 5716 5716 5716 5715 5715 5715 5716 5717 5718 5719 5721 5722 5722 5724 5725 5725 5727 5728 5729 5730 5731 5732 5733 5733 5734 5735 5736 5738 5739 5740 5741 5742 5744 5745 5746 5746 5748 5749 5750 5753 5755 5754 5756 5758 5759 5760 5761 5762 5764 5766 5767 5768 5769 5771 5773 5773 5774 5776 5781 5779 5775 5779 5778 5777 5781 5782 5782 5783 5784 5786 5787
5715 5715 5715 5716 5716 5716 5716 5716 5716 5716 5716 5716 5716 5715 5715 5714 5714 5714 5713 5713 5712 5712 5712 5713 5714 5714 5716 5718 5719 5719 5721 5722 5723 5724 5725 5726 5727 5728 5729 5730 5731 5732 5733 5734 5735 5736 5738 5739 5740 5741 5742 5742 5744 5745 5746 5747 5750 5752 5752 5754 5755 5756 5758 5760 5761 5763 5764 5765 5766 5766 5769 5771 5771 5774 5776 5778 5776 5774 5776 5777 5776 5779 5780 5781 5782 5784 5785 5785
5711 5712 5712 5712 5712 5712 5713 5713 5713 5713 5713 5713 5713 5713 5712 5712 5712 5711 5711 5711 5710 5710 5710 5710 5711 5712 5714 5715 5716 5717 5719 5719 5721 5722 5723 5723 5724 5726 5727 5727 5729 5729 5731 5732 5733 5734 5735 5736 5737 5739 5739 5740 5742 5743 5743 5744 5747 5749 5750 5751 5752 5754 5756 5758 5759 5761 5762 5763 5764 5764 5766 5769 5770 5772 5775 5775 5773 5773 5776 5777 5776 5777 5778 5779 5780 5782 5783 5783
5708 5708 5708 5708 5709 5709 5709 5709 5710 5710 5710 5710 5710 5710 5710 5709 5709 5709 5709 5708 5708 5707 5707 5708 5708 5709 5711 5712 5713 5716 5716 5717 5719 5719 5720 5721 5722 5723 5724 5725 5726 5727 5729 5729 5730 5732 5733 5734 5735 5736 5736 5738 5739 5739 5740 5742 5745 5746 5747 5748 5750 5752 5754 5756 5757 5758 5760 5761 5762 5762 5763 5767 5769 5771 5774 5774 5770 5771 5775 5775 5775 5776 5775 5778 5779 5779 5781 5782
5704 5705 5705 5705 5705 5705 5705 5706 5706 5707 5707 5707 5707 5707 5707 5707 5707 5707 5706 5706 5706 5705 5705 5705 5705 5707 5708 5709 5711 5712 5713 5714 5716 5717 5718 5719 5719 5720 5721 5722 5724 5725 5726 5727 5728 5729 5730 5731 5732 5733 5734 5735 5736 5736 5738 5741 5742 5744 5745 5746 5748 5750 5752 5755 5756 5756 5758 5760 5759 5759 5762 5765 5768 5770 5772 5772 5768 5768 5773 5772 5772 5774 5773 5775 5778 5779 5780 5780
5700 5701 5701 5702 5702 5702 5702 5702 5703 5703 5704 5704 5704 5704 5704 5704 5704 5704 5704 5704 5704 5703 5703 5702 5703 5704 5705 5706 5708 5709 5710 5712 5714 5715 5716 5716 5716 5717 5718 5720 5721 5722 5724 5725 5726 5727 5728 5729 5729 5731 5731 5733 5734 5734 5736 5738 5740 5741 5743 5745 5747 5749 5750 5753 5757 5756 5754 5758 5758 5756 5759 5765 5766 5768 5770 5770 5767 5766 5769 5770 5770 5772 5772 5772 5776 5777 5777 5778
5697 5697 5697 5698 5698 5699 5699 5699 5700 5700 5700 5701 5701 5701 5701 5701 5701 5701 5702 5702 5702 5701 5701 5700 5701 5702 5702 5704 5706 5707 5708 5710 5711 5712 5713 5713 5714 5714 5716 5717 5718 5720 5721 5722 5723 5724 5725 5726 5727 5728 5729 5730 5731 5732 5734 5736 5739 5741 5742 5744 5745 5747 5749 5751 5756 5757 5753 5755 5758 5755 5757 5763 5764 5765 5768 5767 5764 5764 5767 5768 5768 5770 5770 5770 5773 5773 5773 5776
5693 5693 5694 5694 5695 5695 5695 5696 5696 5697 5697 5698 5698 5699 5698 5698 5699 5698 5699 5700 5700 5700 5699 5699 5700 5700 5700 5702 5703 5704 5705 5708 5709 5709 5710 5711 5711 5712 5714 5715 5716 5718 5719 5720 5721 5721 5723 5724 5724 5726 5727 5728 5730 5731 5733 5736 5739 5741 5742 5743 5744 5745 5748 5751 5754 5756 5754 5754 5757 5755 5756 5761 5762 5763 5766 5764 5762 5764 5765 5766 5767 5768 5769 5770 5771 5772 5772 5775
5689 5689 5690 5690 5691 5691 5692 5692 5693 5693 5694 5695 5695 5695 5695 5696 5696 5696 5697 5698 5697 5698 5697 5697 5698 5697 5699 5700 5701 5701 5703 5706 5706 5706 5708 5709 5709 5710 5711 5712 5714 5715 5716 5718 5718 5719 5721 5721 5722 5724 5725 5727 5728 5729 5732 5734 5735 5737 5739 5742 5744 5745 5746 5751 5754 5756 5754 5752 5754 5754 5756 5760 5760 5762 5764 5762 5762 5764 5764 5765 5766 5767 5768 5769 5769 5771 5772 5773
5686 5686 5686 5687 5687 5688 5688 5689 5689 5690 5691 5691 5692 5692 5692 5693 5693 5693 5695 5695 5695 5695 5695 5695 5695 5696 5697 5698 5698 5699 5701 5703 5703 5704 5706 5706 5707 5708 5709 5710 5712 5713 5714 5715 5716 5717 5718 5720 5721 5723 5724 5725 5726 5727 5730 5730 5730 5732 5735 5739 5743 5745 5746 5750 5754 5756 5752 5750 5753 5753 5754 5757 5759 5761 5763 5762 5761 5762 5763 5764 5764 5765 5767 5767 5767 5769 5771 5771
5682 5682 5682 5683 5683 5684 5685 5685 5685 5686 5687 5688 5689 5689 5689 5689 5690 5690 5691 5693 5693 5693 5693 5693 5693 5694 5695 5696 5697 5697 5699 5700 5701 5702 5703 5704 5705 5706 5707 5708 5709 5711 5712 5713 5714 5716 5717 5719 5720 5721 5722 5723 5724 5725 5727 5727 5728 5731 5733 5735 5740 5743 5747 5749 5753 5755 5749 5746 5751 5752 5751 5754 5757 5759 5760 5761 5760 5758 5760 5763 5763 5763 5765 5766 5765 5766 5768 5764
5679 5679 5679 5679 5680 5680 5681 5681 5682 5682 5683 5684 5685 5686 5686 5686 5687 5687 5688 5690 5691 5690 5691 5691 5691 5692 5693 5694 5695 5695 5697 5698 5698 5699 5701 5702 5702 5703 5705 5706 5708 5709 5710 5711 5712 5714 5716 5717 5718 5719 5720 5720 5721 5723 5725 5726 5728 5731 5732 5733 5737 5740 5746 5748 5749 5751 5745 5743 5748 5750 5750 5752 5755 5755 5757 5761 5760 5755 5756 5760 5761 5761 5762 5764 5764 5764 5762 5757
5675 5675 5676 5676 5676 5677 5678 5678 5678 5679 5680 5681 5682 5683 5683 5684 5684 5685 5685 5687 5688 5688 5689 5689 5689 5690 5691 5692 5692 5694 5694 5695 5696 5697 5698 5700 5700 5701 5703 5704 5706 5707 5708 5710 5711 5712 5714 5715 5716 5717 5718 5718 5720 5722 5723 5725 5727 5729 5730 5731 5734 5737 5743 5747 5746 5745 5744 5742 5744 5747 5748 5750 5751 5751 5755 5759 5756 5753 5755 5757 5758 5759 5759 5761 5760 5757 5754 5752
5672 5672 5673 5673 5673 5674 5674 5675 5675 5676 5676 5677 5679 5680 5681 5681 5681 5682 5683 5684 5685 5686 5686 5687 5687 5688 5689 5690 5691 5691 5691 5692 5694 5695 5696 5698 5698 5700 5702 5702 5704 5705 5707 5708 5709 5711 5712 5713 5714 5715 5715 5716 5719 5721 5722 5724 5725 5726 5728 5730 5732 5734 5738 5744 5744 5742 5742 5741 5742 5744 5745 5746 5747 5749 5752 5754 5751 5751 5754 5754 5756 5757 5756 5757 5755 5751 5750 5751
5669 5670 5670 5670 5670 5671 5672 5672 5672 5673 5673 5674 5676 5677 5678 5678 5678 5679 5680 5681 5682 5683 5683 5685 5686 5686 5686 5687 5688 5689 5689 5691 5692 5692 5694 5696 5696 5698 5700 5700 5702 5704 5705 5707 5707 5709 5711 5711 5711 5713 5714 5715 5717 5719 5720 5722 5723 5724 5726 5728 5731 5731 5733 5737 5740 5739 5739 5739 5741 5741 5740 5742 5745 5747 5749 5748 5747 5749 5751 5751 5754 5754 5753 5753 5749 5746 5747 5750
5667 5667 5667 5667 5667 5668 5669 5670 5670 5670 5670 5672 5673 5674 5674 5675 5676 5677 5678 5678 5679 5680 5681 5682 5684 5684 5683 5685 5686 5687 5688 5689 5690 5690 5692 5694 5695 5696 5697 5698 5701 5702 5704 5705 5705 5707 5709 5709 5709 5711 5713 5714 5716 5717 5719 5720 5721 5723 5725 5727 5729 5730 5731 5732 5735 5736 5736 5737 5738 5738 5738 5741 5743 5745 5745 5745 5745 5746 5747 5749 5751 5752 5751 5747 5741 5741 5745 5748
5663 5663 5664 5664 5664 5665 5666 5667 5667 5667 5667 5669 5671 5671 5672 5673 5673 5674 5675 5676 5676 5678 5679 5680 5682 5682 5682 5683 5685 5685 5686 5687 5688 5689 5691 5692 5693 5694 5696 5697 5699 5701 5702 5703 5704 5706 5707 5707 5708 5710 5712 5713 5714 5716 5717 5719 5720 5722 5723 5725 5728 5729 5730 5731 5733 5733 5733 5734 5735 5736 5738 5739 5741 5742 5741 5742 5743 5742 5744 5746 5748 5749 5744 5739 5738 5741 5746 5749
5660 5660 5660 5660 5661 5661 5662 5663 5664 5664 5665 5666 5667 5667 5669 5670 5670 5671 5672 5673 5674 5676 5677 5678 5679 5680 5680 5681 5683 5684 5684 5685 5686 5686 5688 5690 5690 5692 5694 5696 5698 5699 5700 5701 5703 5705 5705 5706 5706 5708 5710 5711 5713 5714 5716 5717 5719 5720 5720 5722 5724 5725 5727 5729 5731 5732 5732 5732 5732 5734 5736 5737 5739 5740 5738 5740 5740 5740 5742 5742 5744 5744 5738 5735 5739 5742 5747 5750
5656 5656 5656 5656 5657 5658 5658 5659 5660 5661 5661 5662 5663 5664 5665 5666 5667 5668 5669 5670 5673 5675 5674 5675 5677 5677 5678 5679 5681 5682 5683 5684 5684 5683 5686 5687 5688 5690 5692 5694 5695 5697 5698 5700 5702 5702 5703 5703 5704 5706 5709 5711 5712 5712 5714 5716 5717 5718 5719 5721 5722 5723 5726 5727 5729 5731 5730 5729 5730 5733 5734 5735 5737 5738 5737 5738 5737 5739 5740 5738 5739 5741 5736 5735 5738 5742 5746 5748
5653 5653 5653 5653 5653 5654 5655 5655 5656 5657 5658 5658 5659 5660 5661 5663 5664 5664 5666 5669 5672 5673 5671 5673 5675 5674 5676 5677 5678 5680 5681 5682 5682 5681 5684 5686 5687 5689 5690 5691 5693 5695 5696 5698 5700 5701 5701 5701 5703 5706 5708 5709 5709 5710 5712 5714 5715 5716 5718 5720 5721 5723 5724 5726 5727 5728 5727 5726 5729 5732 5733 5734 5735 5735 5735 5736 5735 5736 5737 5735 5737 5738 5735 5735 5737 5741 5744 5745
5650 5650 5650 5649 5650 5650 5651 5652 5652 5652 5654 5654 5655 5656 5658 5659 5659 5661 5664 5668 5670 5670 5670 5672 5672 5672 5674 5675 5676 5677 5679 5680 5679 5680 5682 5684 5685 5687 5688 5689 5692 5694 5695 5697 5699 5699 5699 5700 5703 5705 5706 5706 5708 5710 5711 5712 5713 5715 5717 5718 5720 5721 5722 5723 5724 5725 5725 5726 5728 5731 5731 5731 5733 5732 5731 5733 5734 5734 5734 5734 5736 5736 5734 5733 5735 5739 5742 5743
5647 5647 5647 5647 5646 5647 5647 5648 5648 5649 5650 5650 5651 5652 5653 5654 5655 5658 5662 5665 5668 5668 5668 5669 5669 5669 5671 5673 5674 5675 5676 5678 5677 5678 5681 5682 5683 5685 5686 5688 5690 5692 5694 5695 5697 5697 5698 5699 5701 5703 5704 5705 5707 5709 5710 5711 5712 5714 5716 5717 5718 5719 5720 5721 5722 5723 5724 5725 5727 5729 5729 5729 5729 5728 5727 5730 5733 5732 5730 5730 5733 5735 5734 5731 5733 5738 5740 5741
5644 5644 5644 5644 5644 5643 5644 5645 5645 5645 5646 5647 5647 5648 5649 5649 5652 5656 5659 5662 5665 5665 5666 5667 5667 5668 5669 5670 5672 5672 5674 5675 5675 5676 5678 5679 5680 5682 5683 5686 5687 5689 5692 5693 5693 5695 5696 5697 5699 5701 5703 5703 5706 5708 5709 5710 5711 5712 5714 5715 5716 5717 5718 5719 5720 5721 5723 5724 5725 5726 5726 5726 5726 5725 5724 5727 5730 5730 5728 5727 5729 5732 5733 5732 5735 5737 5738 5739
5641 5641 5641 5641 5641 5641 5641 5641 5642 5642 5642 5643 5643 5644 5644 5646 5650 5654 5656 5660 5663 5663 5664 5665 5665 5666 5667 5668 5670 5670 5672 5674 5673 5673 5675 5676 5678 5679 5681 5684 5685 5687 5690 5690 5691 5693 5694 5696 5697 5699 5701 5702 5704 5706 5707 5708 5710 5711 5712 5713 5714 5715 5716 5717 5718 5719 5720 5720 5721 5722 5723 5723 5723 5722 5723 5726 5727 5728 5727 5726 5726 5727 5729 5731 5734 5736 5737 5738
5639 5638 5638 5638 5638 5637 5638 5638 5638 5638 5639 5639 5639 5640 5642 5644 5648 5650 5653 5657 5659 5660 5662 5663 5663 5664 5665 5666 5668 5669 5670 5672 5671 5671 5673 5674 5676 5677 5679 5681 5683 5685 5687 5689 5690 5691 5693 5695 5697 5697 5698 5699 5702 5704 5705 5706 5708 5709 5710 5712 5713 5714 5715 5716 5716 5717 5718 5718 5719 5720 5720 5721 5721 5720 5722 5724 5725 5725 5724 5724 5724 5725 5725 5728 5730 5733 5735 5736
5636 5636 5635 5635 5634 5634 5634 5635 5635 5635 5635 5635 5635 5637 5639 5642 5644 5647 5650 5653 5656 5658 5660 5660 5661 5662 5663 5664 5665 5667 5668 5669 5669 5669 5670 5671 5673 5675 5677 5679 5680 5682 5684 5686 5688 5689 5690 5692 5694 5695 5696 5697 5699 5702 5703 5704 5706 5707 5708 5710 5711 5712 5713 5713 5713 5714 5716 5716 5718 5718 5718 5719 5720 5719 5719 5721 5723 5723 5723 5722 5723 5724 5724 5725 5727 5729 5731 5732
5634 5633 5632 5631 5631 5631 5631 5631 5631 5631 5631 5631 5632 5634 5636 5638 5641 5644 5647 5649 5651 5654 5654 5654 5656 5658 5660 5661 5662 5664 5666 5666 5666 5666 5667 5668 5669 5671 5674 5676 5677 5679 5681 5683 5685 5685 5686 5688 5690 5692 5695 5696 5697 5699 5701 5702 5704 5705 5706 5707 5708 5709 5709 5710 5710 5712 5713 5714 5716 5716 5718 5719 5718 5716 5715 5716 5719 5721 5721 5722 5723 5724 5724 5725 5726 5727 5728 5728
5631 5630 5629 5628 5628 5627 5627 5627 5627 5627 5627 5628 5629 5631 5633 5635 5637 5640 5643 5644 5646 5648 5648 5650 5653 5654 5656 5658 5660 5661 5662 5663 5663 5663 5664 5665 5666 5668 5671 5672 5672 5675 5678 5680 5681 5682 5683 5686 5687 5689 5692 5694 5694 5696 5698 5699 5701 5703 5704 5705 5706 5707 5707 5707 5708 5710 5712 5713 5714 5716 5718 5717 5714 5713 5713 5712 5714 5717 5718 5719 5722 5723 5724 5725 5725 5726 5727 5728
5628 5627 5626 5625 5624 5624 5623 5623 5623 5623 5624 5624 5625 5627 5628 5630 5633 5635 5638 5640 5641 5642 5643 5645 5649 5651 5653 5656 5657 5658 5659 5659 5659 5659 5661 5661 5661 5665 5668 5668 5668 5670 5674 5676 5678 5679 5680 5682 5685 5687 5689 5691 5691 5693 5695 5697 5699 5701 5701 5703 5704 5705 5705 5705 5707 5708 5710 5711 5712 5713 5715 5714 5711 5712 5712 5711 5712 5714 5715 5715 5716 5717 5719 5721 5722 5724 5725 5726
5625 5624 5623 5622 5621 5621 5620 5620 5620 5619 5620 5621 5621 5622 5624 5626 5628 5631 5634 5636 5636 5636 5638 5641 5643 5645 5648 5651 5653 5654 5655 5656 5655 5656 5657 5657 5658 5662 5665 5665 5665 5667 5669 5672 5675 5676 5675 5678 5682 5684 5685 5687 5689 5691 5692 5694 5697 5699 5700 5701 5702 5703 5703 5703 5704 5706 5707 5709 5710 5710 5710 5710 5710 5711 5711 5709 5710 5712 5712 5712 5711 5711 5712 5714 5716 5718 5720 5721
5623 5621 5620 5619 5618 5618 5617 5616 5616 5616 5616 5617 5617 5618 5620 5621 5624 5626 5629 5630 5630 5631 5634 5637 5639 5640 5643 5646 5647 5649 5651 5652 5653 5653 5654 5655 5656 5658 5661 5662 5663 5665 5665 5667 5670 5672 5672 5674 5677 5679 5680 5683 5685 5686 5687 5689 5693 5696 5698 5698 5699 5701 5702 5702 5702 5703 5705 5705 5706 5708 5708 5707 5709 5710 5709 5709 5709 5709 5709 5710 5710 5710 5710 5710 5711 5712 5714 5716
5620 5618 5617 5616 5615 5615 5613 5612 5612 5612 5612 5613 5613 5614 5615 5617 5619 5621 5622 5624 5626 5628 5630 5632 5635 5637 5639 5641 5643 5644 5647 5648 5649 5649 5650 5652 5652 5654 5657 5659 5662 5663 5663 5663 5665 5667 5669 5671 5674 5676 5677 5679 5681 5682 5683 5685 5686 5688 5691 5694 5696 5697 5698 5699 5699 5699 5700 5701 5703 5705 5705 5704 5706 5707 5707 5706 5707 5706 5706 5707 5709 5709 5709 5709 5709 5709 5711 5713
5618 5616 5615 5614 5612 5611 5610 5609 5608 5608 5608 5609 5609 5610 5610 5611 5613 5615 5617 5620 5622 5624 5626 5629 5632 5634 5636 5638 5640 5642 5644 5645 5646 5646 5646 5648 5649 5650 5654 5657 5658 5659 5659 5660 5661 5663 5666 5668 5670 5673 5674 5675 5678 5679 5680 5682 5682 5683 5686 5689 5691 5693 5695 5695 5695 5696 5697 5699 5700 5701 5701 5702 5703 5703 5703 5703 5703 5703 5704 5705 5707 5707 5707 5707 5708 5708 5709 5711
5617 5615 5613 5611 5609 5607 5606 5605 5605 5604 5604 5604 5605 5606 5607 5608 5609 5611 5613 5615 5617 5619 5621 5624 5627 5629 5630 5633 5636 5639 5640 5641 5643 5644 5644 5645 5647 5648 5651 5654 5655 5656 5656 5658 5659 5661 5664 5666 5667 5670 5671 5672 5675 5676 5677 5679 5680 5682 5683 5684 5686 5688 5691 5691 5691 5692 5693 5696 5698 5698 5698 5699 5700 5699 5700 5701 5701 5702 5704 5705 5707 5707 5707 5707 5706 5707 5708 5709
5615 5613 5610 5607 5605 5603 5602 5601 5601 5600 5599 5599 5600 5602 5604 5605 5606 5607 5609 5611 5614 5615 5617 5619 5621 5622 5625 5628 5630 5633 5635 5638 5640 5641 5642 5644 5645 5646 5648 5650 5652 5653 5654 5655 5657 5659 5661 5662 5664 5666 5668 5670 5671 5671 5674 5676 5677 5678 5680 5681 5682 5683 5685 5686 5687 5688 5689 5691 5694 5694 5694 5695 5695 5695 5696 5697 5698 5699 5702 5704 5705 5705 5705 5705 5704 5704 5705 5706
5613 5610 5607 5603 5601 5599 5597 5596 5596 5595 5595 5595 5596 5598 5600 5602 5603 5605 5606 5608 5610 5611 5613 5616 5618 5620 5622 5625 5627 5629 5632 5635 5638 5640 5642 5643 5643 5644 5646 5647 5649 5651 5652 5653 5655 5657 5659 5659 5662 5664 5666 5667 5667 5667 5671 5673 5673 5675 5677 5679 5680 5680 5681 5682 5683 5684 5685 5686 5688 5690 5691 5691 5692 5693 5694 5695 5695 5696 5698 5700 5701 5701 5702 5702 5702 5701 5701 5702
5611 5607 5603 5600 5598 5596 5594 5593 5592 5591 5591 5591 5592 5594 5596 5599 5601 5602 5604 5605 5606 5608 5610 5612 5615 5617 5620 5623 5625 5627 5629 5632 5635 5638 5639 5638 5639 5641 5643 5644 5646 5648 5650 5651 5653 5655 5657 5658 5660 5662 5663 5664 5664 5665 5668 5670 5670 5671 5674 5676 5678 5678 5678 5677 5678 5680 5681 5682 5684 5686 5688 5689 5690 5692 5693 5694 5694 5694 5694 5696 5697 5697 5698 5700 5701 5700 5700 5700
5609 5605 5601 5598 5596 5595 5593 5591 5589 5589 5588 5587 5589 5592 5593 5595 5597 5598 5600 5603 5604 5606 5607 5609 5612 5615 5617 5619 5621 5622 5624 5627 5630 5633 5633 5634 5637 5639 5640 5642 5644 5645 5647 5650 5651 5652 5654 5655 5657 5659 5660 5660 5661 5662 5664 5666 5667 5668 5670 5672 5674 5675 5675 5676 5678 5679 5680 5679 5680 5683 5686 5687 5688 5689 5690 5692 5693 5692 5692 5693 5694 5693 5694 5696 5698 5698 5699 5699
5608 5604 5600 5597 5596 5594 5593 5591 5589 5588 5586 5586 5587 5590 5592 5593 5594 5595 5598 5600 5602 5603 5605 5607 5609 5612 5613 5614 5615 5617 5621 5624 5626 5628 5630 5633 5635 5636 5638 5641 5642 5643 5645 5647 5648 5649 5651 5652 5653 5655 5656 5657 5658 5659 5660 5662 5663 5665 5666 5668 5669 5671 5673 5674 5675 5676 5677 5677 5678 5680 5682 5683 5685 5685 5685 5688 5690 5690 5691 5692 5693 5692 5692 5694 5695 5696 5696 5697
5608 5604 5601 5598 5597 5595 5594 5592 5590 5588 5587 5586 5587 5589 5590 5592 5593 5594 5596 5597 5598 5600 5602 5604 5606 5608 5610 5611 5613 5616 5619 5621 5624 5626 5628 5631 5633 5634 5636 5638 5639 5641 5643 5644 5645 5646 5648 5648 5650 5651 5652 5654 5655 5656 5656 5658 5660 5661 5663 5664 5665 5667 5668 5669 5670 5671 5672 5673 5675 5676 5676 5678 5680 5681 5682 5685 5687 5687 5688 5689 5690 5690 5690 5691 5693 5694 5695 5695
5608 5605 5602 5599 5598 5596 5595 5593 5591 5589 5587 5587 5587 5588 5590 5591 5591 5592 5593 5595 5597 5599 5601 5602 5604 5606 5608 5610 5612 5614 5616 5619 5621 5623 5625 5628 5630 5631 5632 5635 5637 5638 5640 5641 5643 5644 5644 5645 5646 5648 5649 5651 5652 5652 5654 5655 5656 5658 5659 5660 5662 5663 5664 5664 5665 5667 5668 5669 5670 5671 5672 5674 5675 5676 5678 5681 5682 5683 5684 5686 5687 5687 5688 5689 5689 5690 5691 5693